Location: Powder Track
(41.8531°N, 72.3584°W)
Time: 07:27:36
(UTC+00:00)

Altair - Pass Details

Date: 29 July 2021
Orbit: 1501 x 1682 km, 47.2° (Epoch: 19 September)

Event Time Altitude Azimuth Distance (km) Brightness Sun altitude
Exits shadow 07:08:38 34° 220° (SW) 2,325 7.9 -22.2°
Maximum altitude 07:13:14 71° 147° (SSE) 1,599 7.4 -21.7°
Drops below altitude 10° 07:22:21 10° 66° (ENE) 3,658 10.4 -20.7°
Sets 07:25:22 0° 64° (ENE) 4,638 11.1 -20.3°
